This is the latest recevied weather packets stored in our database for station/object N9GKE-1. If no packets are shown the sender has not sent any weather packets the latest 10 day(s).
| Time | Temp. | Humidity | Pressure | Rain* | Wind** | Luminosity | Snow |
|---|---|---|---|---|---|---|---|
| 1778092296 | 13.33° C | 52% | 1014.5 hPa | 0 mm | - | - | - |
| 1778091695 | 12.78° C | 55% | 1014.4 hPa | 0 mm | - | - | - |
| 1778091094 | 13.33° C | 58% | 1014.4 hPa | 0 mm | - | - | - |
| 1778090495 | 13.33° C | 57% | 1014.4 hPa | 0 mm | - | - | - |
| 1778089895 | 13.33° C | 57% | 1014.5 hPa | 0 mm | - | - | - |
| 1778089294 | 13.33° C | 59% | 1014.6 hPa | 0 mm | - | - | - |
| 1778088695 | 13.33° C | 59% | 1014.6 hPa | 0 mm | - | - | - |
| 1778088094 | 13.33° C | 54% | 1014.7 hPa | 0 mm | - | - | - |
| 1778087497 | 13.33° C | 55% | 1014.7 hPa | 0 mm | - | - | - |
| 1778086895 | 13.33° C | 59% | 1014.3 hPa | 0 mm | - | - | - |
| 1778086294 | 12.78° C | 56% | 1014.3 hPa | 0 mm | - | - | - |
| 1778085694 | 12.78° C | 55% | 1014.2 hPa | 0 mm | - | - | - |
| 1778085094 | 12.78° C | 57% | 1014.2 hPa | 0 mm | - | - | - |
| 1778084499 | 12.22° C | 53% | 1014.1 hPa | 0 mm | - | - | - |
| 1778083895 | 12.78° C | 54% | 1014.2 hPa | 0 mm | - | - | - |
| 1778083294 | 12.22° C | 55% | 1014.1 hPa | 0 mm | - | - | - |
| 1778082695 | 12.22° C | 55% | 1014 hPa | 0 mm | - | - | - |
| 1778082095 | 12.22° C | 54% | 1014.1 hPa | 0 mm | - | - | - |
| 1778081495 | 12.22° C | 54% | 1014.1 hPa | 0 mm | - | - | - |
| 1778080894 | 12.22° C | 59% | 1014.2 hPa | 0 mm | - | - | - |
| 1778080294 | 12.22° C | 62% | 1014.2 hPa | 0 mm | - | - | - |
| 1778079695 | 11.67° C | 62% | 1014.1 hPa | 0 mm | - | - | - |
| 1778079095 | 11.67° C | 64% | 1013.9 hPa | 0 mm | - | - | - |
| 1778078496 | 11.67° C | 66% | 1014.3 hPa | 0 mm | - | - | - |
| 1778077894 | 11.67° C | 69% | 1014.2 hPa | 0 mm | - | - | - |
* Rain latest hour (hover to see other rain measurements)
** Current wind speed in m/s (hover to see current wind gust speed)